When you browse on this site, cookies collect data to enhance your experience and personalize the content and advertising you see.
Visit our Privacy Policy to learn more. By continuing to use the site, you agree to this use of cookies and data.
  • In Hungary
  • List of Countries
  • For 7 days
  • Water Temperature
  • Satellite Maps
  • Weather Map
  • News
  • Weather Widgets
  • user-avatar
    Login

    Hourly Weather Bahawalpur

    Today, 17 January, Thursday

    Time Temperature Precipitation Wind Pressure Humidity
    00:00 +17°C° 0 mm 3 mps 753 mmHg 20%
    01:00 +16°C° 0 mm 3 mps 753 mmHg 21%
    02:00 +16°C° 0 mm 3 mps 753 mmHg 21%
    03:00 +14°C° 0 mm 3 mps 753 mmHg 22%
    04:00 +13°C° 0 mm 3 mps 753 mmHg 23%
    05:00 +13°C° 0 mm 3 mps 753 mmHg 24%
    06:00 +13°C° 0 mm 3 mps 753 mmHg 25%
    07:00 +13°C° 0 mm 3 mps 754 mmHg 25%
    08:00 +13°C° 0 mm 3 mps 754 mmHg 25%
    09:00 +16°C° 0 mm 3 mps 754 mmHg 22%
    10:00 +19°C° 0 mm 3 mps 754 mmHg 19%
    11:00 +21°C° 0 mm 3 mps 754 mmHg 16%
    12:00 +22°C° 0 mm 3 mps 754 mmHg 15%
    13:00 +24°C° 0 mm 3 mps 753 mmHg 14%
    14:00 +26°C° 0 mm 3 mps 752 mmHg 13%
    15:00 +25°C° 0 mm 2 mps 752 mmHg 14%
    16:00 +25°C° 0 mm 2 mps 752 mmHg 14%
    17:00 +24°C° 0 mm 2 mps 752 mmHg 15%
    18:00 +21°C° 0 mm 2 mps 752 mmHg 16%
    19:00 +20°C° 0 mm 2 mps 752 mmHg 17%
    20:00 +18°C° 0 mm 2 mps 753 mmHg 19%
    21:00 +17°C° 0 mm 2 mps 753 mmHg 19%
    22:00 +17°C° 0 mm 2 mps 753 mmHg 19%
    23:00 +16°C° 0 mm 2 mps 753 mmHg 19%

    Tomorrow, 18 January, Friday

    Time Temperature Precipitation Wind Pressure Humidity
    00:00 +16°C° 0 mm 2 mps 753 mmHg 18%
    01:00 +16°C° 0 mm 2 mps 753 mmHg 18%
    02:00 +15°C° 0 mm 2 mps 753 mmHg 18%
    03:00 +15°C° 0 mm 2 mps 753 mmHg 18%
    04:00 +15°C° 0 mm 2 mps 753 mmHg 18%
    05:00 +15°C° 0 mm 2 mps 753 mmHg 18%
    06:00 +15°C° 0 mm 2 mps 753 mmHg 19%
    07:00 +15°C° 0 mm 2 mps 753 mmHg 21%
    08:00 +15°C° 0 mm 2 mps 754 mmHg 22%
    09:00 +17°C° 0 mm 2 mps 754 mmHg 20%
    10:00 +19°C° 0 mm 2 mps 754 mmHg 18%
    11:00 +23°C° 0 mm 2 mps 755 mmHg 17%
    12:00 +24°C° 0 mm 2 mps 754 mmHg 16%
    13:00 +25°C° 0 mm 1 mps 753 mmHg 14%
    14:00 +26°C° 0 mm 1 mps 752 mmHg 13%
    15:00 +25°C° 0 mm 1 mps 752 mmHg 14%
    16:00 +25°C° 0 mm 1 mps 752 mmHg 15%
    17:00 +24°C° 0 mm 1 mps 752 mmHg 16%
    18:00 +23°C° 0 mm 1 mps 752 mmHg 17%
    19:00 +21°C° 0 mm 2 mps 752 mmHg 19%
    20:00 +19°C° 0 mm 2 mps 753 mmHg 20%
    21:00 +19°C° 0 mm 2 mps 753 mmHg 21%
    22:00 +19°C° 0 mm 2 mps 753 mmHg 21%
    23:00 +18°C° 0 mm 3 mps 753 mmHg 22%

    Day after tomorrow, 19 January, Saturday

    Time Temperature Precipitation Wind Pressure Humidity
    00:00 +17°C° 0 mm 3 mps 753 mmHg 23%
    01:00 +17°C° 0 mm 3 mps 753 mmHg 24%
    02:00 +16°C° 0 mm 3 mps 753 mmHg 25%
    03:00 +16°C° 0 mm 3 mps 753 mmHg 26%
    04:00 +16°C° 0 mm 3 mps 753 mmHg 26%
    05:00 +14°C° 0 mm 3 mps 752 mmHg 27%
    06:00 +14°C° 0 mm 3 mps 753 mmHg 27%
    07:00 +14°C° 0 mm 3 mps 754 mmHg 28%
    08:00 +14°C° 0 mm 3 mps 754 mmHg 28%
    09:00 +17°C° 0 mm 3 mps 754 mmHg 25%
    10:00 +20°C° 0 mm 3 mps 754 mmHg 22%
    11:00 +22°C° 0 mm 3 mps 755 mmHg 19%
    12:00 +24°C° 0 mm 3 mps 754 mmHg 18%
    13:00 +25°C° 0 mm 3 mps 753 mmHg 16%
    14:00 +26°C° 0 mm 3 mps 752 mmHg 15%
    15:00 +26°C° 0 mm 2 mps 752 mmHg 15%
    16:00 +25°C° 0 mm 2 mps 752 mmHg 16%
    17:00 +25°C° 0 mm 2 mps 752 mmHg 16%
    18:00 +24°C° 0 mm 2 mps 752 mmHg 17%
    19:00 +21°C° 0 mm 2 mps 752 mmHg 18%
    20:00 +20°C° 0 mm 2 mps 753 mmHg 19%
    21:00 +20°C° 0 mm 2 mps 753 mmHg 20%
    22:00 +19°C° 0 mm 2 mps 753 mmHg 20%
    23:00 +19°C° 0 mm 3 mps 753 mmHg 21%

    20 January, Sunday

    Time Temperature Precipitation Wind Pressure Humidity
    00:00 +18°C° 0 mm 3 mps 752 mmHg 21%
    01:00 +18°C° 0 mm 3 mps 752 mmHg 22%
    02:00 +18°C° 0 mm 3 mps 752 mmHg 23%
    03:00 +17°C° 0 mm 3 mps 752 mmHg 23%
    04:00 +17°C° 0 mm 3 mps 752 mmHg 24%
    05:00 +16°C° 0 mm 2 mps 751 mmHg 25%
    06:00 +17°C° 0 mm 3 mps 752 mmHg 25%
    07:00 +17°C° 0 mm 3 mps 752 mmHg 25%
    08:00 +17°C° 0 mm 3 mps 753 mmHg 25%
    09:00 +19°C° 0 mm 3 mps 753 mmHg 23%
    10:00 +21°C° 0 mm 3 mps 753 mmHg 20%
    11:00 +24°C° 0 mm 3 mps 753 mmHg 18%
    12:00 +25°C° 0 mm 3 mps 752 mmHg 17%
    13:00 +26°C° 0 mm 3 mps 751 mmHg 17%
    14:00 +27°C° 0 mm 2 mps 750 mmHg 16%
    15:00 +26°C° 0 mm 2 mps 750 mmHg 18%
    16:00 +25°C° 0 mm 2 mps 749 mmHg 20%
    17:00 +25°C° 0 mm 2 mps 749 mmHg 22%
    18:00 +24°C° 0.1 mm 2 mps 750 mmHg 28%
    19:00 +21°C° 0.1 mm 2 mps 750 mmHg 34%
    20:00 +20°C° 0.1 mm 2 mps 750 mmHg 40%
    21:00 +20°C° 0 mm 2 mps 750 mmHg 42%
    22:00 +20°C° 0 mm 2 mps 750 mmHg 44%
    23:00 +20°C° 0 mm 1 mps 751 mmHg 45%

    21 January, Monday

    Time Temperature Precipitation Wind Pressure Humidity
    00:00 +19°C° 0 mm 2 mps 750 mmHg 45%
    01:00 +18°C° 0 mm 2 mps 750 mmHg 44%
    02:00 +17°C° 0 mm 2 mps 750 mmHg 44%
    03:00 +17°C° 0.2 mm 3 mps 750 mmHg 47%
    04:00 +16°C° 0.2 mm 3 mps 750 mmHg 50%
    05:00 +14°C° 0.2 mm 3 mps 749 mmHg 54%
    06:00 +14°C° 0.3 mm 3 mps 750 mmHg 57%
    07:00 +14°C° 0.3 mm 3 mps 750 mmHg 59%
    08:00 +13°C° 0.3 mm 3 mps 751 mmHg 62%
    09:00 +16°C° 0.5 mm 3 mps 751 mmHg 59%
    10:00 +17°C° 0.5 mm 3 mps 751 mmHg 55%
    11:00 +18°C° 0.5 mm 3 mps 751 mmHg 52%
    12:00 +19°C° 0.1 mm 3 mps 750 mmHg 49%
    13:00 +20°C° 0.1 mm 2 mps 750 mmHg 46%
    14:00 +21°C° 0.1 mm 2 mps 749 mmHg 43%
    15:00 +21°C° 0.1 mm 2 mps 748 mmHg 43%
    16:00 +21°C° 0.1 mm 2 mps 748 mmHg 44%
    17:00 +21°C° 0.1 mm 2 mps 748 mmHg 44%
    18:00 +20°C° 0 mm 2 mps 749 mmHg 48%
    19:00 +19°C° 0 mm 2 mps 749 mmHg 52%
    20:00 +17°C° 0 mm 2 mps 750 mmHg 56%
    21:00 +17°C° 0 mm 3 mps 750 mmHg 62%
    22:00 +15°C° 0 mm 4 mps 750 mmHg 68%
    23:00 +14°C° 0 mm 4 mps 750 mmHg 74%

    22 January, Tuesday

    Time Temperature Precipitation Wind Pressure Humidity
    00:00 +14°C° 0 mm 4 mps 750 mmHg 79%
    01:00 +13°C° 0 mm 4 mps 749 mmHg 83%
    02:00 +13°C° 0 mm 4 mps 749 mmHg 87%
    03:00 +12°C° 0 mm 4 mps 749 mmHg 90%
    04:00 +12°C° 0 mm 4 mps 749 mmHg 92%
    05:00 +11°C° 0 mm 4 mps 749 mmHg 95%
    06:00 +11°C° 0 mm 4 mps 750 mmHg 93%
    07:00 +11°C° 0 mm 4 mps 750 mmHg 90%
    08:00 +12°C° 0 mm 4 mps 751 mmHg 87%
    09:00 +13°C° 0 mm 4 mps 751 mmHg 77%
    10:00 +16°C° 0 mm 3 mps 752 mmHg 67%
    11:00 +17°C° 0 mm 3 mps 752 mmHg 57%
    12:00 +19°C° 0 mm 3 mps 751 mmHg 51%
    13:00 +20°C° 0 mm 2 mps 751 mmHg 44%
    14:00 +21°C° 0 mm 2 mps 750 mmHg 38%
    15:00 +21°C° 0 mm 2 mps 750 mmHg 36%
    16:00 +22°C° 0 mm 1 mps 750 mmHg 35%
    17:00 +22°C° 0 mm 1 mps 750 mmHg 33%
    18:00 +20°C° 0 mm 1 mps 751 mmHg 36%
    19:00 +19°C° 0 mm 1 mps 751 mmHg 39%
    20:00 +17°C° 0 mm 2 mps 752 mmHg 42%
    21:00 +17°C° 0 mm 2 mps 752 mmHg 45%
    22:00 +16°C° 0 mm 2 mps 752 mmHg 48%
    23:00 +16°C° 0 mm 2 mps 753 mmHg 51%
    Show more